owner,sensor,date,latitude,longitude,vertical_datum,sea_water_practical_salinity,qcFlag 
DISL,ioos:station:DISL:BSCA:1,2011-10-01T00:00:00Z,30.3288,-87.8293,1.844,19.19,1111122 
DISL,ioos:station:DISL:BSCA:1,2011-10-01T00:30:00Z,30.3288,-87.8293,1.863,19.28,1111122 
DISL,ioos:station:DISL:BSCA:1,2011-10-01T01:00:00Z,30.3288,-87.8293,1.87,19.26,1111122 
DISL,ioos:station:DISL:BSCA:1,2011-10-01T01:30:00Z,30.3288,-87.8293,1.867,19.2,1111122 
DISL,ioos:station:DISL:BSCA:1,2011-10-01T02:00:00Z,30.3288,-87.8293,1.881,19.22,1111122 
DISL,ioos:station:DISL:BSCA:1,2011-10-01T02:30:00Z,30.3288,-87.8293,1.897,19.2,1111122 
DISL,ioos:station:DISL:BSCA:1,2011-10-01T03:00:00Z,30.3288,-87.8293,1.912,19.11,1111122 
DISL,ioos:station:DISL:BSCA:1,2011-10-01T03:30:00Z,30.3288,-87.8293,1.92,19.09,1111122 
DISL,ioos:station:DISL:BSCA:1,2011-10-01T04:00:00Z,30.3288,-87.8293,1.941,19.1,1111122 
DISL,ioos:station:DISL:BSCA:1,2011-10-01T04:30:00Z,30.3288,-87.8293,1.942,19.1,1111122 
DISL,ioos:station:DISL:BSCA:1,2011-10-01T05:00:00Z,30.3288,-87.8293,1.951,19.02,1111122 
DISL,ioos:station:DISL:BSCA:1,2011-10-01T05:30:00Z,30.3288,-87.8293,1.974,19.09,1111122 
DISL,ioos:station:DISL:BSCA:1,2011-10-01T06:00:00Z,30.3288,-87.8293,1.967,19.08,1111122 
DISL,ioos:station:DISL:BSCA:1,2011-10-01T06:30:00Z,30.3288,-87.8293,1.961,19.11,1111122 
DISL,ioos:station:DISL:BSCA:1,2011-10-01T07:00:00Z,30.3288,-87.8293,1.945,19.32,1111122 
DISL,ioos:station:DISL:BSCA:1,2011-10-01T07:30:00Z,30.3288,-87.8293,1.919,19.49,1111122 
DISL,ioos:station:DISL:BSCA:1,2011-10-01T08:00:00Z,30.3288,-87.8293,1.906,19.57,1111122 
DISL,ioos:station:DISL:BSCA:1,2011-10-01T08:30:00Z,30.3288,-87.8293,1.892,19.66,1111122 
DISL,ioos:station:DISL:BSCA:1,2011-10-01T09:00:00Z,30.3288,-87.8293,1.885,19.61,1111122 
DISL,ioos:station:DISL:BSCA:1,2011-10-01T09:30:00Z,30.3288,-87.8293,1.853,19.67,1111122 
DISL,ioos:station:DISL:BSCA:1,2011-10-01T10:00:00Z,30.3288,-87.8293,1.829,19.62,1111122 
DISL,ioos:station:DISL:BSCA:1,2011-10-01T10:30:00Z,30.3288,-87.8293,1.799,19.68,1111122 
DISL,ioos:station:DISL:BSCA:1,2011-10-01T11:00:00Z,30.3288,-87.8293,1.759,19.69,1111122 
DISL,ioos:station:DISL:BSCA:1,2011-10-01T11:30:00Z,30.3288,-87.8293,1.733,19.65,1111122 
DISL,ioos:station:DISL:BSCA:1,2011-10-01T12:00:00Z,30.3288,-87.8293,1.721,19.6,1111122 
DISL,ioos:station:DISL:BSCA:1,2011-10-01T12:30:00Z,30.3288,-87.8293,1.68,19.83,1111122 
DISL,ioos:station:DISL:BSCA:1,2011-10-01T13:00:00Z,30.3288,-87.8293,1.664,19.81,1111122 
DISL,ioos:station:DISL:BSCA:1,2011-10-01T13:30:00Z,30.3288,-87.8293,1.643,19.76,1111122 
DISL,ioos:station:DISL:BSCA:1,2011-10-01T14:00:00Z,30.3288,-87.8293,1.62,19.75,1111122 
DISL,ioos:station:DISL:BSCA:1,2011-10-01T14:30:00Z,30.3288,-87.8293,1.605,19.78,1111122 
DISL,ioos:station:DISL:BSCA:1,2011-10-01T15:00:00Z,30.3288,-87.8293,1.585,19.68,1111122 
DISL,ioos:station:DISL:BSCA:1,2011-10-01T15:30:00Z,30.3288,-87.8293,1.573,19.7,1111122 
DISL,ioos:station:DISL:BSCA:1,2011-10-01T16:00:00Z,30.3288,-87.8293,1.56,19.68,1111122 
DISL,ioos:station:DISL:BSCA:1,2011-10-01T16:30:00Z,30.3288,-87.8293,1.56,19.68,1111122 
DISL,ioos:station:DISL:BSCA:1,2011-10-01T17:00:00Z,30.3288,-87.8293,1.567,19.65,1111122 
DISL,ioos:station:DISL:BSCA:1,2011-10-01T17:30:00Z,30.3288,-87.8293,1.588,19.67,1111122 
DISL,ioos:station:DISL:BSCA:1,2011-10-01T18:00:00Z,30.3288,-87.8293,1.604,19.67,1111122 
DISL,ioos:station:DISL:BSCA:1,2011-10-01T18:30:00Z,30.3288,-87.8293,1.627,19.7,1111122 
DISL,ioos:station:DISL:BSCA:1,2011-10-01T19:00:00Z,30.3288,-87.8293,1.646,19.72,1111122 
DISL,ioos:station:DISL:BSCA:1,2011-10-01T19:30:00Z,30.3288,-87.8293,1.67,19.79,1111122 
DISL,ioos:station:DISL:BSCA:1,2011-10-01T20:00:00Z,30.3288,-87.8293,1.664,19.72,1111122 
DISL,ioos:station:DISL:BSCA:1,2011-10-01T20:30:00Z,30.3288,-87.8293,1.67,19.64,1111122 
DISL,ioos:station:DISL:BSCA:1,2011-10-01T21:00:00Z,30.3288,-87.8293,1.655,19.63,1111122 
DISL,ioos:station:DISL:BSCA:1,2011-10-01T21:30:00Z,30.3288,-87.8293,1.661,19.63,1111122 
DISL,ioos:station:DISL:BSCA:1,2011-10-01T22:00:00Z,30.3288,-87.8293,1.67,19.59,1111122 
DISL,ioos:station:DISL:BSCA:1,2011-10-01T22:30:00Z,30.3288,-87.8293,1.686,19.69,1111122 
DISL,ioos:station:DISL:BSCA:1,2011-10-01T23:00:00Z,30.3288,-87.8293,1.696,19.58,1111122 
DISL,ioos:station:DISL:BSCA:1,2011-10-01T23:30:00Z,30.3288,-87.8293,1.712,19.54,1111122 
DISL,ioos:station:DISL:BSCA:1,2011-10-02T00:00:00Z,30.3288,-87.8293,1.745,19.56,1111122 
DISL,ioos:station:DISL:BSCA:1,2011-10-02T00:30:00Z,30.3288,-87.8293,1.767,19.64,1111122 
DISL,ioos:station:DISL:BSCA:1,2011-10-02T01:00:00Z,30.3288,-87.8293,1.793,19.59,1111122 
DISL,ioos:station:DISL:BSCA:1,2011-10-02T01:30:00Z,30.3288,-87.8293,1.808,19.6,1111122 
DISL,ioos:station:DISL:BSCA:1,2011-10-02T02:00:00Z,30.3288,-87.8293,1.815,19.6,1111122 
DISL,ioos:station:DISL:BSCA:1,2011-10-02T02:30:00Z,30.3288,-87.8293,1.827,19.71,1111122 
DISL,ioos:station:DISL:BSCA:1,2011-10-02T03:00:00Z,30.3288,-87.8293,1.838,19.76,1111122 
DISL,ioos:station:DISL:BSCA:1,2011-10-02T03:30:00Z,30.3288,-87.8293,1.862,19.79,1111122 
DISL,ioos:station:DISL:BSCA:1,2011-10-02T04:00:00Z,30.3288,-87.8293,1.883,19.78,1111122 
DISL,ioos:station:DISL:BSCA:1,2011-10-02T04:30:00Z,30.3288,-87.8293,1.893,19.84,1111122 
DISL,ioos:station:DISL:BSCA:1,2011-10-02T05:00:00Z,30.3288,-87.8293,1.905,19.78,1111122 
DISL,ioos:station:DISL:BSCA:1,2011-10-02T05:30:00Z,30.3288,-87.8293,1.908,19.84,1111122 
DISL,ioos:station:DISL:BSCA:1,2011-10-02T06:00:00Z,30.3288,-87.8293,1.906,19.86,1111122 
DISL,ioos:station:DISL:BSCA:1,2011-10-02T06:30:00Z,30.3288,-87.8293,1.906,20.09,1111122 
DISL,ioos:station:DISL:BSCA:1,2011-10-02T07:00:00Z,30.3288,-87.8293,1.908,19.98,1111122 
DISL,ioos:station:DISL:BSCA:1,2011-10-02T07:30:00Z,30.3288,-87.8293,1.909,20.0,1111122 
DISL,ioos:station:DISL:BSCA:1,2011-10-02T08:00:00Z,30.3288,-87.8293,1.918,20.02,1111122 
DISL,ioos:station:DISL:BSCA:1,2011-10-02T08:30:00Z,30.3288,-87.8293,1.925,19.98,1111122 
DISL,ioos:station:DISL:BSCA:1,2011-10-02T09:00:00Z,30.3288,-87.8293,1.933,19.93,1111122 
DISL,ioos:station:DISL:BSCA:1,2011-10-02T09:30:00Z,30.3288,-87.8293,1.938,19.88,1111122 
DISL,ioos:station:DISL:BSCA:1,2011-10-02T10:00:00Z,30.3288,-87.8293,1.929,19.87,1111122 
DISL,ioos:station:DISL:BSCA:1,2011-10-02T10:30:00Z,30.3288,-87.8293,1.921,19.83,1111122 
DISL,ioos:station:DISL:BSCA:1,2011-10-02T11:00:00Z,30.3288,-87.8293,1.888,19.82,1111122 
DISL,ioos:station:DISL:BSCA:1,2011-10-02T11:30:00Z,30.3288,-87.8293,1.861,19.83,1111122 
DISL,ioos:station:DISL:BSCA:1,2011-10-02T12:00:00Z,30.3288,-87.8293,1.826,19.87,1111122 
DISL,ioos:station:DISL:BSCA:1,2011-10-02T12:30:00Z,30.3288,-87.8293,1.792,19.84,1111122 
DISL,ioos:station:DISL:BSCA:1,2011-10-02T13:00:00Z,30.3288,-87.8293,1.753,19.85,1111122 
DISL,ioos:station:DISL:BSCA:1,2011-10-02T13:30:00Z,30.3288,-87.8293,1.733,19.9,1111122 
DISL,ioos:station:DISL:BSCA:1,2011-10-02T14:00:00Z,30.3288,-87.8293,1.706,19.92,1111122 
DISL,ioos:station:DISL:BSCA:1,2011-10-02T14:30:00Z,30.3288,-87.8293,1.673,19.92,1111122 
DISL,ioos:station:DISL:BSCA:1,2011-10-02T15:00:00Z,30.3288,-87.8293,1.658,19.88,1111122 
DISL,ioos:station:DISL:BSCA:1,2011-10-02T15:30:00Z,30.3288,-87.8293,1.645,19.95,1111122 
DISL,ioos:station:DISL:BSCA:1,2011-10-02T16:00:00Z,30.3288,-87.8293,1.627,19.89,1111122 
DISL,ioos:station:DISL:BSCA:1,2011-10-02T16:30:00Z,30.3288,-87.8293,1.618,19.88,1111122 
DISL,ioos:station:DISL:BSCA:1,2011-10-02T17:00:00Z,30.3288,-87.8293,1.607,19.89,1111122 
DISL,ioos:station:DISL:BSCA:1,2011-10-02T17:30:00Z,30.3288,-87.8293,1.602,19.83,1111122 
DISL,ioos:station:DISL:BSCA:1,2011-10-02T18:00:00Z,30.3288,-87.8293,1.596,19.83,1111122 
DISL,ioos:station:DISL:BSCA:1,2011-10-02T18:30:00Z,30.3288,-87.8293,1.591,19.8,1111122 
DISL,ioos:station:DISL:BSCA:1,2011-10-02T19:00:00Z,30.3288,-87.8293,1.591,19.65,1111122 
DISL,ioos:station:DISL:BSCA:1,2011-10-02T19:30:00Z,30.3288,-87.8293,1.59,19.73,1111122 
DISL,ioos:station:DISL:BSCA:1,2011-10-02T20:00:00Z,30.3288,-87.8293,1.586,19.73,1111122 
DISL,ioos:station:DISL:BSCA:1,2011-10-02T20:30:00Z,30.3288,-87.8293,1.598,19.34,1111122 
DISL,ioos:station:DISL:BSCA:1,2011-10-02T21:00:00Z,30.3288,-87.8293,1.616,19.21,1111122 
DISL,ioos:station:DISL:BSCA:1,2011-10-02T21:30:00Z,30.3288,-87.8293,1.611,18.84,1111122 
DISL,ioos:station:DISL:BSCA:1,2011-10-02T22:00:00Z,30.3288,-87.8293,1.612,18.72,1111122 
DISL,ioos:station:DISL:BSCA:1,2011-10-02T22:30:00Z,30.3288,-87.8293,1.624,18.73,1111122 
DISL,ioos:station:DISL:BSCA:1,2011-10-02T23:00:00Z,30.3288,-87.8293,1.641,18.63,1111122 
DISL,ioos:station:DISL:BSCA:1,2011-10-02T23:30:00Z,30.3288,-87.8293,1.661,18.47,1111122 
DISL,ioos:station:DISL:BSCA:1,2011-10-03T00:00:00Z,30.3288,-87.8293,1.694,18.41,1111122 
DISL,ioos:station:DISL:BSCA:1,2011-10-03T00:30:00Z,30.3288,-87.8293,1.725,18.35,1111122 
DISL,ioos:station:DISL:BSCA:1,2011-10-03T01:00:00Z,30.3288,-87.8293,1.751,18.32,1111122 
DISL,ioos:station:DISL:BSCA:1,2011-10-03T01:30:00Z,30.3288,-87.8293,1.778,18.3,1111122 
DISL,ioos:station:DISL:BSCA:1,2011-10-03T02:00:00Z,30.3288,-87.8293,1.799,18.26,1111122 
DISL,ioos:station:DISL:BSCA:1,2011-10-03T02:30:00Z,30.3288,-87.8293,1.823,18.22,1111122 
DISL,ioos:station:DISL:BSCA:1,2011-10-03T03:00:00Z,30.3288,-87.8293,1.847,18.23,1111122 
DISL,ioos:station:DISL:BSCA:1,2011-10-03T03:30:00Z,30.3288,-87.8293,1.857,18.25,1111122 
DISL,ioos:station:DISL:BSCA:1,2011-10-03T04:00:00Z,30.3288,-87.8293,1.883,18.27,1111122 
DISL,ioos:station:DISL:BSCA:1,2011-10-03T04:30:00Z,30.3288,-87.8293,1.898,18.29,1111122 
DISL,ioos:station:DISL:BSCA:1,2011-10-03T05:00:00Z,30.3288,-87.8293,1.918,18.36,1111122 
DISL,ioos:station:DISL:BSCA:1,2011-10-03T05:30:00Z,30.3288,-87.8293,1.929,18.44,1111122 
DISL,ioos:station:DISL:BSCA:1,2011-10-03T06:00:00Z,30.3288,-87.8293,1.942,18.5,1111122 
DISL,ioos:station:DISL:BSCA:1,2011-10-03T06:30:00Z,30.3288,-87.8293,1.954,18.62,1111122 
DISL,ioos:station:DISL:BSCA:1,2011-10-03T07:00:00Z,30.3288,-87.8293,1.955,18.8,1111122 
DISL,ioos:station:DISL:BSCA:1,2011-10-03T07:30:00Z,30.3288,-87.8293,1.962,18.89,1111122 
DISL,ioos:station:DISL:BSCA:1,2011-10-03T08:00:00Z,30.3288,-87.8293,1.966,18.87,1111122 
DISL,ioos:station:DISL:BSCA:1,2011-10-03T08:30:00Z,30.3288,-87.8293,1.963,19.0,1111122 
DISL,ioos:station:DISL:BSCA:1,2011-10-03T09:00:00Z,30.3288,-87.8293,1.962,18.95,1111122 
DISL,ioos:station:DISL:BSCA:1,2011-10-03T09:30:00Z,30.3288,-87.8293,1.957,18.91,1111122 
DISL,ioos:station:DISL:BSCA:1,2011-10-03T10:00:00Z,30.3288,-87.8293,1.938,18.99,1111122 
DISL,ioos:station:DISL:BSCA:1,2011-10-03T10:30:00Z,30.3288,-87.8293,1.919,18.95,1111122 
DISL,ioos:station:DISL:BSCA:1,2011-10-03T11:00:00Z,30.3288,-87.8293,1.89,18.95,1111122 
DISL,ioos:station:DISL:BSCA:1,2011-10-03T11:30:00Z,30.3288,-87.8293,1.873,18.84,1111122 
DISL,ioos:station:DISL:BSCA:1,2011-10-03T12:00:00Z,30.3288,-87.8293,1.845,18.72,1111122 
DISL,ioos:station:DISL:BSCA:1,2011-10-03T12:30:00Z,30.3288,-87.8293,1.817,18.71,1111122 
DISL,ioos:station:DISL:BSCA:1,2011-10-03T13:00:00Z,30.3288,-87.8293,1.797,18.69,1111122 
DISL,ioos:station:DISL:BSCA:1,2011-10-03T13:30:00Z,30.3288,-87.8293,1.772,18.65,1111122 
DISL,ioos:station:DISL:BSCA:1,2011-10-03T14:00:00Z,30.3288,-87.8293,1.755,18.62,1111122 
DISL,ioos:station:DISL:BSCA:1,2011-10-03T14:30:00Z,30.3288,-87.8293,1.723,18.58,1111122 
DISL,ioos:station:DISL:BSCA:1,2011-10-03T15:00:00Z,30.3288,-87.8293,1.699,18.57,1111122 
DISL,ioos:station:DISL:BSCA:1,2011-10-03T15:30:00Z,30.3288,-87.8293,1.669,18.54,1111122 
DISL,ioos:station:DISL:BSCA:1,2011-10-03T16:00:00Z,30.3288,-87.8293,1.646,18.52,1111122 
DISL,ioos:station:DISL:BSCA:1,2011-10-03T16:30:00Z,30.3288,-87.8293,1.635,18.51,1111122 
DISL,ioos:station:DISL:BSCA:1,2011-10-03T17:00:00Z,30.3288,-87.8293,1.626,18.57,1111122 
DISL,ioos:station:DISL:BSCA:1,2011-10-03T17:30:00Z,30.3288,-87.8293,1.613,18.68,1111122 
DISL,ioos:station:DISL:BSCA:1,2011-10-03T18:00:00Z,30.3288,-87.8293,1.603,18.74,1111122 
DISL,ioos:station:DISL:BSCA:1,2011-10-03T18:30:00Z,30.3288,-87.8293,1.597,18.8,1111122 
DISL,ioos:station:DISL:BSCA:1,2011-10-03T19:00:00Z,30.3288,-87.8293,1.592,18.84,1111122 
DISL,ioos:station:DISL:BSCA:1,2011-10-03T19:30:00Z,30.3288,-87.8293,1.595,18.9,1111122 
DISL,ioos:station:DISL:BSCA:1,2011-10-03T20:00:00Z,30.3288,-87.8293,1.587,19.0,1111122 
DISL,ioos:station:DISL:BSCA:1,2011-10-03T20:30:00Z,30.3288,-87.8293,1.579,19.15,1111122 
DISL,ioos:station:DISL:BSCA:1,2011-10-03T21:00:00Z,30.3288,-87.8293,1.57,19.27,1111122 
DISL,ioos:station:DISL:BSCA:1,2011-10-03T21:30:00Z,30.3288,-87.8293,1.567,19.16,1111122 
DISL,ioos:station:DISL:BSCA:1,2011-10-03T22:00:00Z,30.3288,-87.8293,1.588,19.23,1111122 
DISL,ioos:station:DISL:BSCA:1,2011-10-03T22:30:00Z,30.3288,-87.8293,1.595,19.47,1111122 
DISL,ioos:station:DISL:BSCA:1,2011-10-03T23:00:00Z,30.3288,-87.8293,1.614,19.5,1111122 
DISL,ioos:station:DISL:BSCA:1,2011-10-03T23:30:00Z,30.3288,-87.8293,1.636,19.53,1111122 
DISL,ioos:station:DISL:BSCA:1,2011-10-04T00:00:00Z,30.3288,-87.8293,1.673,19.58,1111122 
DISL,ioos:station:DISL:BSCA:1,2011-10-04T00:30:00Z,30.3288,-87.8293,1.696,19.64,1111122 
DISL,ioos:station:DISL:BSCA:1,2011-10-04T01:00:00Z,30.3288,-87.8293,1.718,19.6,1111122 
DISL,ioos:station:DISL:BSCA:1,2011-10-04T01:30:00Z,30.3288,-87.8293,1.741,19.57,1111122 
DISL,ioos:station:DISL:BSCA:1,2011-10-04T02:00:00Z,30.3288,-87.8293,1.768,19.69,1111122 
DISL,ioos:station:DISL:BSCA:1,2011-10-04T02:30:00Z,30.3288,-87.8293,1.803,19.72,1111122 
DISL,ioos:station:DISL:BSCA:1,2011-10-04T03:00:00Z,30.3288,-87.8293,1.817,19.75,1111122 
DISL,ioos:station:DISL:BSCA:1,2011-10-04T03:30:00Z,30.3288,-87.8293,1.833,19.76,1111122 
DISL,ioos:station:DISL:BSCA:1,2011-10-04T04:00:00Z,30.3288,-87.8293,1.856,19.75,1111122 
DISL,ioos:station:DISL:BSCA:1,2011-10-04T04:30:00Z,30.3288,-87.8293,1.866,19.75,1111122 
DISL,ioos:station:DISL:BSCA:1,2011-10-04T05:00:00Z,30.3288,-87.8293,1.884,19.74,1111122 
DISL,ioos:station:DISL:BSCA:1,2011-10-04T05:30:00Z,30.3288,-87.8293,1.907,19.74,1111122 
DISL,ioos:station:DISL:BSCA:1,2011-10-04T06:00:00Z,30.3288,-87.8293,1.939,19.73,1111122 
DISL,ioos:station:DISL:BSCA:1,2011-10-04T06:30:00Z,30.3288,-87.8293,1.964,19.73,1111122 
DISL,ioos:station:DISL:BSCA:1,2011-10-04T07:00:00Z,30.3288,-87.8293,1.986,19.7,1111122 
DISL,ioos:station:DISL:BSCA:1,2011-10-04T07:30:00Z,30.3288,-87.8293,2.004,19.68,1111122 
DISL,ioos:station:DISL:BSCA:1,2011-10-04T08:00:00Z,30.3288,-87.8293,2.009,19.67,1111122 
DISL,ioos:station:DISL:BSCA:1,2011-10-04T08:30:00Z,30.3288,-87.8293,2.004,19.66,1111122 
DISL,ioos:station:DISL:BSCA:1,2011-10-04T09:00:00Z,30.3288,-87.8293,2.003,19.62,1111122 
DISL,ioos:station:DISL:BSCA:1,2011-10-04T09:30:00Z,30.3288,-87.8293,2.0,19.6,1111122 
DISL,ioos:station:DISL:BSCA:1,2011-10-04T10:00:00Z,30.3288,-87.8293,1.99,19.56,1111122 
DISL,ioos:station:DISL:BSCA:1,2011-10-04T10:30:00Z,30.3288,-87.8293,1.976,19.52,1111122 
DISL,ioos:station:DISL:BSCA:1,2011-10-04T11:00:00Z,30.3288,-87.8293,1.96,19.13,1111122 
DISL,ioos:station:DISL:BSCA:1,2011-10-04T11:30:00Z,30.3288,-87.8293,1.943,19.45,1111122 
DISL,ioos:station:DISL:BSCA:1,2011-10-04T12:00:00Z,30.3288,-87.8293,1.922,19.48,1111122 
DISL,ioos:station:DISL:BSCA:1,2011-10-04T12:30:00Z,30.3288,-87.8293,1.9,19.44,1111122 
DISL,ioos:station:DISL:BSCA:1,2011-10-04T13:00:00Z,30.3288,-87.8293,1.886,19.1,1111122 
DISL,ioos:station:DISL:BSCA:1,2011-10-04T13:30:00Z,30.3288,-87.8293,1.862,19.67,1111122 
DISL,ioos:station:DISL:BSCA:1,2011-10-04T14:00:00Z,30.3288,-87.8293,1.844,19.56,1111122 
DISL,ioos:station:DISL:BSCA:1,2011-10-04T14:30:00Z,30.3288,-87.8293,1.822,19.53,1111122 
DISL,ioos:station:DISL:BSCA:1,2011-10-04T15:00:00Z,30.3288,-87.8293,1.803,19.69,1111122 
DISL,ioos:station:DISL:BSCA:1,2011-10-04T15:30:00Z,30.3288,-87.8293,1.777,19.63,1111122 
DISL,ioos:station:DISL:BSCA:1,2011-10-04T16:00:00Z,30.3288,-87.8293,1.763,19.69,1111122 
DISL,ioos:station:DISL:BSCA:1,2011-10-04T16:30:00Z,30.3288,-87.8293,1.732,19.78,1111122 
DISL,ioos:station:DISL:BSCA:1,2011-10-04T17:00:00Z,30.3288,-87.8293,1.715,19.39,1111122 
DISL,ioos:station:DISL:BSCA:1,2011-10-04T17:30:00Z,30.3288,-87.8293,1.698,19.51,1111122 
DISL,ioos:station:DISL:BSCA:1,2011-10-04T18:00:00Z,30.3288,-87.8293,1.678,19.4,1111122 
DISL,ioos:station:DISL:BSCA:1,2011-10-04T18:30:00Z,30.3288,-87.8293,1.667,19.42,1111122 
DISL,ioos:station:DISL:BSCA:1,2011-10-04T19:00:00Z,30.3288,-87.8293,1.654,19.32,1111122 
DISL,ioos:station:DISL:BSCA:1,2011-10-04T19:30:00Z,30.3288,-87.8293,1.647,19.36,1111122 
DISL,ioos:station:DISL:BSCA:1,2011-10-04T20:00:00Z,30.3288,-87.8293,1.639,19.35,1111122 
DISL,ioos:station:DISL:BSCA:1,2011-10-04T20:30:00Z,30.3288,-87.8293,1.639,19.43,1111122 
DISL,ioos:station:DISL:BSCA:1,2011-10-04T21:00:00Z,30.3288,-87.8293,1.625,19.35,1111122 
DISL,ioos:station:DISL:BSCA:1,2011-10-04T21:30:00Z,30.3288,-87.8293,1.619,19.36,1111122 
DISL,ioos:station:DISL:BSCA:1,2011-10-04T22:00:00Z,30.3288,-87.8293,1.617,19.35,1111122 
DISL,ioos:station:DISL:BSCA:1,2011-10-04T22:30:00Z,30.3288,-87.8293,1.614,19.37,1111122 
DISL,ioos:station:DISL:BSCA:1,2011-10-04T23:00:00Z,30.3288,-87.8293,1.636,19.36,1111122 
DISL,ioos:station:DISL:BSCA:1,2011-10-04T23:30:00Z,30.3288,-87.8293,1.651,19.52,1111122 
DISL,ioos:station:DISL:BSCA:1,2011-10-05T00:00:00Z,30.3288,-87.8293,1.679,19.45,1111122 
DISL,ioos:station:DISL:BSCA:1,2011-10-05T00:30:00Z,30.3288,-87.8293,1.703,20.5,1111122 
DISL,ioos:station:DISL:BSCA:1,2011-10-05T01:00:00Z,30.3288,-87.8293,1.735,19.39,1111122 
DISL,ioos:station:DISL:BSCA:1,2011-10-05T01:30:00Z,30.3288,-87.8293,1.775,19.41,1111122 
DISL,ioos:station:DISL:BSCA:1,2011-10-05T02:00:00Z,30.3288,-87.8293,1.795,20.07,1111122 
DISL,ioos:station:DISL:BSCA:1,2011-10-05T02:30:00Z,30.3288,-87.8293,1.812,19.99,1111122 
DISL,ioos:station:DISL:BSCA:1,2011-10-05T03:00:00Z,30.3288,-87.8293,1.821,20.36,1111122 
DISL,ioos:station:DISL:BSCA:1,2011-10-05T03:30:00Z,30.3288,-87.8293,1.843,19.8,1111122 
DISL,ioos:station:DISL:BSCA:1,2011-10-05T04:00:00Z,30.3288,-87.8293,1.86,20.4,1111122 
DISL,ioos:station:DISL:BSCA:1,2011-10-05T04:30:00Z,30.3288,-87.8293,1.892,20.67,1111122 
DISL,ioos:station:DISL:BSCA:1,2011-10-05T05:00:00Z,30.3288,-87.8293,1.907,20.59,1111122 
DISL,ioos:station:DISL:BSCA:1,2011-10-05T05:30:00Z,30.3288,-87.8293,1.934,19.36,1111122 
DISL,ioos:station:DISL:BSCA:1,2011-10-05T06:00:00Z,30.3288,-87.8293,1.956,19.47,1111122 
DISL,ioos:station:DISL:BSCA:1,2011-10-05T06:30:00Z,30.3288,-87.8293,1.976,18.43,1111122 
DISL,ioos:station:DISL:BSCA:1,2011-10-05T07:00:00Z,30.3288,-87.8293,1.993,17.93,1111122 
DISL,ioos:station:DISL:BSCA:1,2011-10-05T07:30:00Z,30.3288,-87.8293,2.015,18.77,1111122 
DISL,ioos:station:DISL:BSCA:1,2011-10-05T08:00:00Z,30.3288,-87.8293,2.037,19.86,1111122 
DISL,ioos:station:DISL:BSCA:1,2011-10-05T08:30:00Z,30.3288,-87.8293,2.054,18.7,1111122 
DISL,ioos:station:DISL:BSCA:1,2011-10-05T09:00:00Z,30.3288,-87.8293,2.064,18.73,1111122 
DISL,ioos:station:DISL:BSCA:1,2011-10-05T09:30:00Z,30.3288,-87.8293,2.07,19.2,1111122 
DISL,ioos:station:DISL:BSCA:1,2011-10-05T10:00:00Z,30.3288,-87.8293,2.071,18.73,1111122 
DISL,ioos:station:DISL:BSCA:1,2011-10-05T10:30:00Z,30.3288,-87.8293,2.069,18.51,1111122 
DISL,ioos:station:DISL:BSCA:1,2011-10-05T11:00:00Z,30.3288,-87.8293,2.062,18.8,1111122 
DISL,ioos:station:DISL:BSCA:1,2011-10-05T11:30:00Z,30.3288,-87.8293,2.048,18.4,1111122 
DISL,ioos:station:DISL:BSCA:1,2011-10-05T12:00:00Z,30.3288,-87.8293,2.034,18.18,1111122 
DISL,ioos:station:DISL:BSCA:1,2011-10-05T12:30:00Z,30.3288,-87.8293,2.015,18.42,1111122 
DISL,ioos:station:DISL:BSCA:1,2011-10-05T13:00:00Z,30.3288,-87.8293,1.992,18.44,1111122 
DISL,ioos:station:DISL:BSCA:1,2011-10-05T13:30:00Z,30.3288,-87.8293,1.973,18.31,1111122 
DISL,ioos:station:DISL:BSCA:1,2011-10-05T14:00:00Z,30.3288,-87.8293,1.962,18.5,1111122 
DISL,ioos:station:DISL:BSCA:1,2011-10-05T15:30:00Z,30.3288,-87.8293,1.906,18.05,1111122 
DISL,ioos:station:DISL:BSCA:1,2011-10-05T16:00:00Z,30.3288,-87.8293,1.878,18.56,1111122 
DISL,ioos:station:DISL:BSCA:1,2011-10-05T16:30:00Z,30.3288,-87.8293,1.849,18.62,1111122 
DISL,ioos:station:DISL:BSCA:1,2011-10-05T17:00:00Z,30.3288,-87.8293,1.833,19.18,1111122 
DISL,ioos:station:DISL:BSCA:1,2011-10-05T17:30:00Z,30.3288,-87.8293,1.802,19.15,1111122 
DISL,ioos:station:DISL:BSCA:1,2011-10-05T18:00:00Z,30.3288,-87.8293,1.772,19.49,1111122 
DISL,ioos:station:DISL:BSCA:1,2011-10-05T18:30:00Z,30.3288,-87.8293,1.739,19.58,1111122 
DISL,ioos:station:DISL:BSCA:1,2011-10-05T19:00:00Z,30.3288,-87.8293,1.714,18.85,1111122 
DISL,ioos:station:DISL:BSCA:1,2011-10-05T19:30:00Z,30.3288,-87.8293,1.699,18.9,1111122 
DISL,ioos:station:DISL:BSCA:1,2011-10-05T20:00:00Z,30.3288,-87.8293,1.682,18.96,1111122 
DISL,ioos:station:DISL:BSCA:1,2011-10-05T20:30:00Z,30.3288,-87.8293,1.664,19.24,1111122 
DISL,ioos:station:DISL:BSCA:1,2011-10-05T21:00:00Z,30.3288,-87.8293,1.652,18.97,1111122 
DISL,ioos:station:DISL:BSCA:1,2011-10-05T21:30:00Z,30.3288,-87.8293,1.647,18.78,1111122 
DISL,ioos:station:DISL:BSCA:1,2011-10-05T22:00:00Z,30.3288,-87.8293,1.65,18.54,1111122 
DISL,ioos:station:DISL:BSCA:1,2011-10-05T22:30:00Z,30.3288,-87.8293,1.659,18.19,1111122 
DISL,ioos:station:DISL:BSCA:1,2011-10-05T23:00:00Z,30.3288,-87.8293,1.669,18.12,1111122 
DISL,ioos:station:DISL:BSCA:1,2011-10-05T23:30:00Z,30.3288,-87.8293,1.688,18.45,1111122 
DISL,ioos:station:DISL:BSCA:1,2011-10-06T00:00:00Z,30.3288,-87.8293,1.704,19.85,1111122 
DISL,ioos:station:DISL:BSCA:1,2011-10-06T00:30:00Z,30.3288,-87.8293,1.723,19.59,1111122 
DISL,ioos:station:DISL:BSCA:1,2011-10-06T01:00:00Z,30.3288,-87.8293,1.748,20.12,1111122 
DISL,ioos:station:DISL:BSCA:1,2011-10-06T01:30:00Z,30.3288,-87.8293,1.768,20.83,1111122 
DISL,ioos:station:DISL:BSCA:1,2011-10-06T02:00:00Z,30.3288,-87.8293,1.793,19.24,1111122 
DISL,ioos:station:DISL:BSCA:1,2011-10-06T02:30:00Z,30.3288,-87.8293,1.821,19.87,1111122 
DISL,ioos:station:DISL:BSCA:1,2011-10-06T03:00:00Z,30.3288,-87.8293,1.842,21.39,1111122 
DISL,ioos:station:DISL:BSCA:1,2011-10-06T03:30:00Z,30.3288,-87.8293,1.858,20.82,1111122 
DISL,ioos:station:DISL:BSCA:1,2011-10-06T04:00:00Z,30.3288,-87.8293,1.876,19.85,1111122 
DISL,ioos:station:DISL:BSCA:1,2011-10-06T04:30:00Z,30.3288,-87.8293,1.887,19.83,1111122 
DISL,ioos:station:DISL:BSCA:1,2011-10-06T05:00:00Z,30.3288,-87.8293,1.898,19.67,1111122 
DISL,ioos:station:DISL:BSCA:1,2011-10-06T05:30:00Z,30.3288,-87.8293,1.909,19.41,1111122 
DISL,ioos:station:DISL:BSCA:1,2011-10-06T06:00:00Z,30.3288,-87.8293,1.926,19.73,1111122 
DISL,ioos:station:DISL:BSCA:1,2011-10-06T06:30:00Z,30.3288,-87.8293,1.945,19.72,1111122 
DISL,ioos:station:DISL:BSCA:1,2011-10-06T07:00:00Z,30.3288,-87.8293,1.963,23.21,1111122 
DISL,ioos:station:DISL:BSCA:1,2011-10-06T07:30:00Z,30.3288,-87.8293,1.978,23.37,1111122 
DISL,ioos:station:DISL:BSCA:1,2011-10-06T08:00:00Z,30.3288,-87.8293,2.001,23.33,1111122 
DISL,ioos:station:DISL:BSCA:1,2011-10-06T08:30:00Z,30.3288,-87.8293,2.013,23.39,1111122 
DISL,ioos:station:DISL:BSCA:1,2011-10-06T09:00:00Z,30.3288,-87.8293,2.023,22.28,1111122 
DISL,ioos:station:DISL:BSCA:1,2011-10-06T09:30:00Z,30.3288,-87.8293,2.036,23.35,1111122 
DISL,ioos:station:DISL:BSCA:1,2011-10-06T10:00:00Z,30.3288,-87.8293,2.042,23.35,1111122 
DISL,ioos:station:DISL:BSCA:1,2011-10-06T10:30:00Z,30.3288,-87.8293,2.053,23.92,1111122 
DISL,ioos:station:DISL:BSCA:1,2011-10-06T11:00:00Z,30.3288,-87.8293,2.053,24.09,1111122 
DISL,ioos:station:DISL:BSCA:1,2011-10-06T11:30:00Z,30.3288,-87.8293,2.057,23.45,1111122 
DISL,ioos:station:DISL:BSCA:1,2011-10-06T12:00:00Z,30.3288,-87.8293,2.045,23.41,1111122 
DISL,ioos:station:DISL:BSCA:1,2011-10-06T12:30:00Z,30.3288,-87.8293,2.034,23.58,1111122 
DISL,ioos:station:DISL:BSCA:1,2011-10-06T13:00:00Z,30.3288,-87.8293,2.032,22.67,1111122 
DISL,ioos:station:DISL:BSCA:1,2011-10-06T13:30:00Z,30.3288,-87.8293,2.025,23.51,1111122 
DISL,ioos:station:DISL:BSCA:1,2011-10-06T14:00:00Z,30.3288,-87.8293,2.026,23.82,1111122 
DISL,ioos:station:DISL:BSCA:1,2011-10-06T14:30:00Z,30.3288,-87.8293,2.02,23.65,1111122 
DISL,ioos:station:DISL:BSCA:1,2011-10-06T15:00:00Z,30.3288,-87.8293,2.0,23.93,1111122 